DELTA 1 DEB

Satellite information

Favourite Embed

Satellite Type and Status

DEBRISIN ORBIT

Key statistics

Satellite DELTA 1 DEB at a glance.

Uptime

18486

Days in orbit

Revolutions

≈ 14.2

Per day

Orbit

SSO

Sun Synchronous Orbit

Inclination

97.8

Latest

Satellite identification and parameters

Extended collection of information and parameters for DELTA 1 DEB.

Object identification

Identified? True

Debris? True

Object name: DELTA 1 DEB

International designator: 1975-004J

Object number (NORAD): 8682

Object ID (CCSDS): 8682

Country: UNITED STATES OF AMERICA (US)

Current information (Y/N): Y

RCS size: SMALL

Orbital parameters

Period: 101.372 minutes

Inclination: 97.7766 deg

SMA: 7201.778 km

Apoapsis: 931.797 km

Periapsis: 715.489 km

RAAN: 302.941 deg

Eccentricy: 0.01501767

Argument of periapsis: 222.5543 deg

Mean anomaly: 136.392 deg

Mean motion: 14.20506259 rev/day

Mean motion (dot): 0.00000717 rev/day2

B* drag term: 0.00031356938 1/REarth

Two-line elements (TLE)

Creation date: Sept. 2, 2025, 3:25 a.m.

Reference frame: TEME

Reference center: EARTH

Epoch: Sept. 1, 2025, 3:23 p.m. UTC

TLE line 0: 0 DELTA 1 DEB

TLE line 1: 1 08682U 75004J 25244.64115827 .00000717 00000-0 31357-3 0 9998

TLE line 2: 2 08682 97.7766 302.9410 0150177 222.5543 136.3920 14.20506259609341

Live tracking on map

Real-time ground track for satellite DELTA 1 DEB.

In-orbit conjunctions

A list of the most updated potential collisions computed for object DELTA 1 DEB.

Target Orbit TCA Probability of collision Miss distance Type
FENGYUN 1C DEB SSO 2025-07-01 21:19:04 0.0003697678 231.0 (m) DEBRIS
COSMOS 1275 DEB LEO 2025-05-04 09:58:04 0.0001142941 73.0 (m) DEBRIS
CZ-6A DEB LEO 2025-02-25 17:23:33 0.0002320363 429.0 (m) DEBRIS
SL-16 DEB LEO 2024-12-04 00:18:12 0.0005556025 114.0 (m) DEBRIS
CZ-6A DEB LEO 2024-09-29 06:30:24 0.0001135828 326.0 (m) DEBRIS

Associated space launch

Earth observation satellite

DELTA 1 DEB was lifted into orbit during the mission ‘Delta 2910 | Landsat 2’, on board a Delta 2910 space rocket.

The launch took place on Jan. 22, 1975, 5:55 p.m. from Space Launch Complex 2W.

For more information about the launch, click the button.

Launch to space Delta 2910 | Landsat 2
Delta 2910 | Landsat 2

Agency: N/A

Status: Launch Successful

Launch date: Jan. 22, 1975, 5:55 p.m. UTC

Rocket: Delta 2910

Launch pad: Space Launch Complex 2W

Location: Vandenberg SFB, CA, USA

...

Latest news about this satellite

There are no fresh news available about this satellite. Check back as we update our databases every day.


Newsletter sign-up

Weekly statistics, charts and insights to help you stay on top of the space industry.